Etusivu
METAR-TAF:

METAR-TAF

Lentoasemat :

Sogndal, Norja

Leveyspiiri: 61-09N, Pituuspiiri: 007-08E, korkeus merenpinnasta: 49 m

Tämänhetkinen sää

Tämä raportti tehtiin 6 tuntia ja 28 minuuttia sitten, kello 17.50 UTC
Tuuli 2 kn eri suunnista
Lämpötila 20°C
Kosteus 28%
Ilmanpaine 1007 hPa
Näkyvyys 10 km tai enemmän
ei pilviä alle 1500 m:ssä eikä cumulonimbus-pilviä

METAR: ENSG 281750Z VRB02KT CAVOK 20/01 Q1007 RMK WIND 3806FT 10003KT

Aika: 02:18 (00:18 UTC)


TAF: puuttuu

Säähavainnot ja -ennusteet yli 4000 lentoasemalta (METAR- ja TAF-raportit).

Käytössä olevat sääasemat on merkitty karttaan keltaisilla ja punaisilla pisteillä.

Aseta hiiri pisteen päälle nähdäksesi sääaseman nimen.

Klikkaa sitten nähdäksesi säähavainnot ja -ennusteet.

Kartan vaihtaminen: klikkaa mustalla rastilla varustettuja vihreitä pisteitä, niin voit zoomata sisään; viivalla varustettua vihreää pistettä, niin voit zoomata ulos tai vihreitä nuolia, niin pääset viereisille kartoille.


METAR-TAF: